Time,TemperatureF,DewpointF,PressureIn,WindDirection,WindDirectionDegrees,WindSpeedMPH,WindSpeedGustMPH,Humidity,HourlyPrecipIn,Conditions,Clouds,dailyrainin,SoftwareType,DateUTC
2015-01-30 00:01:00,13.1,8.6,30.67,WNW,293,0.0,18.0,82,0.00,,,0.00,Wunderground v.1.15,2015-01-30 06:01:00,
2015-01-30 00:07:00,12.9,8.4,30.67,WNW,287,0.0,18.0,82,0.00,,,0.00,Wunderground v.1.15,2015-01-30 06:07:00,
2015-01-30 00:13:00,12.6,8.4,30.67,WNW,287,0.0,18.0,83,0.00,,,0.00,Wunderground v.1.15,2015-01-30 06:13:00,
2015-01-30 00:18:00,12.6,8.4,30.67,WNW,303,0.0,18.0,83,0.00,,,0.00,Wunderground v.1.15,2015-01-30 06:18:00,
2015-01-30 00:24:00,12.6,8.4,30.67,WNW,289,0.0,18.0,83,0.00,,,0.00,Wunderground v.1.15,2015-01-30 06:24:00,
2015-01-30 00:30:00,12.5,8.3,30.67,WNW,296,0.0,18.0,83,0.00,,,0.00,Wunderground v.1.15,2015-01-30 06:30:00,
2015-01-30 00:36:00,12.3,8.1,30.68,WNW,285,0.0,18.0,83,0.00,,,0.00,Wunderground v.1.15,2015-01-30 06:36:00,
2015-01-30 00:41:00,12.2,8.3,30.67,NW,306,0.0,18.0,84,0.00,,,0.00,Wunderground v.1.15,2015-01-30 06:41:00,
2015-01-30 00:47:00,12.1,8.2,30.67,WNW,296,0.0,18.0,84,0.00,,,0.00,Wunderground v.1.15,2015-01-30 06:47:00,
2015-01-30 00:53:00,12.0,8.1,30.67,NW,306,0.0,18.0,84,0.00,,,0.00,Wunderground v.1.15,2015-01-30 06:53:00,
2015-01-30 00:59:00,12.1,8.2,30.67,NNW,334,0.0,18.0,84,0.00,,,0.00,Wunderground v.1.15,2015-01-30 06:59:00,
2015-01-30 01:05:00,12.1,8.2,30.67,NW,306,0.0,18.0,84,0.00,,,0.00,Wunderground v.1.15,2015-01-30 07:05:00,
2015-01-30 01:10:00,12.1,7.9,30.67,NW,322,0.0,18.0,83,0.00,,,0.00,Wunderground v.1.15,2015-01-30 07:10:00,
2015-01-30 01:16:00,12.0,7.8,30.67,NW,319,0.0,18.0,83,0.00,,,0.00,Wunderground v.1.15,2015-01-30 07:16:00,
2015-01-30 01:21:00,11.9,7.7,30.67,North,5,0.0,18.0,83,0.00,,,0.00,Wunderground v.1.15,2015-01-30 07:21:00,
2015-01-30 01:27:00,11.7,7.5,30.67,NW,322,0.0,18.0,83,0.00,,,0.00,Wunderground v.1.15,2015-01-30 07:27:00,
2015-01-30 01:33:00,11.6,7.7,30.67,NW,318,0.0,18.0,84,0.00,,,0.00,Wunderground v.1.15,2015-01-30 07:33:00,
2015-01-30 01:39:00,11.5,7.6,30.67,NNE,12,0.0,18.0,84,0.00,,,0.00,Wunderground v.1.15,2015-01-30 07:39:00,
2015-01-30 01:44:00,11.4,7.5,30.67,NW,318,0.0,18.0,84,0.00,,,0.00,Wunderground v.1.15,2015-01-30 07:44:00,
2015-01-30 01:50:00,11.3,7.4,30.67,NNW,346,0.0,18.0,84,0.00,,,0.00,Wunderground v.1.15,2015-01-30 07:50:00,
2015-01-30 01:56:00,11.2,7.3,30.67,NNW,342,0.0,18.0,84,0.00,,,0.00,Wunderground v.1.15,2015-01-30 07:56:00,
2015-01-30 02:02:00,11.1,7.2,30.67,NW,304,0.0,18.0,84,0.00,,,0.00,Wunderground v.1.15,2015-01-30 08:02:00,
2015-01-30 02:07:00,10.9,7.0,30.66,NNW,345,0.0,18.0,84,0.00,,,0.00,Wunderground v.1.15,2015-01-30 08:07:00,
2015-01-30 02:13:00,10.8,6.9,30.66,North,7,0.0,18.0,84,0.00,,,0.00,Wunderground v.1.15,2015-01-30 08:13:00,
2015-01-30 02:19:00,10.7,6.8,30.67,NNW,337,0.0,18.0,84,0.00,,,0.00,Wunderground v.1.15,2015-01-30 08:19:00,
2015-01-30 02:25:00,10.6,7.0,30.66,NNW,328,0.0,18.0,85,0.00,,,0.00,Wunderground v.1.15,2015-01-30 08:25:00,
2015-01-30 02:30:00,10.6,7.0,30.66,NNW,331,0.0,18.0,85,0.00,,,0.00,Wunderground v.1.15,2015-01-30 08:30:00,
2015-01-30 02:36:00,10.6,7.0,30.66,NW,321,0.0,18.0,85,0.00,,,0.00,Wunderground v.1.15,2015-01-30 08:36:00,
2015-01-30 02:42:00,10.5,6.9,30.66,NW,325,0.0,18.0,85,0.00,,,0.00,Wunderground v.1.15,2015-01-30 08:42:00,
2015-01-30 02:48:00,10.5,6.9,30.66,North,10,0.0,18.0,85,0.00,,,0.00,Wunderground v.1.15,2015-01-30 08:48:00,
2015-01-30 02:54:00,10.4,6.8,30.66,NW,311,0.0,18.0,85,0.00,,,0.00,Wunderground v.1.15,2015-01-30 08:54:00,
2015-01-30 03:00:00,10.4,6.8,30.65,North,355,0.0,18.0,85,0.00,,,0.00,Wunderground v.1.15,2015-01-30 09:00:00,
2015-01-30 03:05:00,10.4,6.8,30.65,NW,322,0.0,18.0,85,0.00,,,0.00,Wunderground v.1.15,2015-01-30 09:05:00,
2015-01-30 03:11:00,10.4,6.8,30.65,NW,311,0.0,18.0,85,0.00,,,0.00,Wunderground v.1.15,2015-01-30 09:11:00,
2015-01-30 03:17:00,10.5,6.9,30.65,NNE,16,0.0,18.0,85,0.00,,,0.00,Wunderground v.1.15,2015-01-30 09:17:00,
2015-01-30 03:22:00,10.5,6.9,30.65,NNE,17,0.0,18.0,85,0.00,,,0.00,Wunderground v.1.15,2015-01-30 09:22:00,
2015-01-30 03:28:00,10.4,6.8,30.65,North,349,0.0,18.0,85,0.00,,,0.00,Wunderground v.1.15,2015-01-30 09:28:00,
2015-01-30 03:33:00,10.4,6.8,30.65,North,9,0.0,18.0,85,0.00,,,0.00,Wunderground v.1.15,2015-01-30 09:33:00,
2015-01-30 03:39:00,10.3,6.4,30.65,NNE,17,0.0,18.0,84,0.00,,,0.00,Wunderground v.1.15,2015-01-30 09:39:00,
2015-01-30 03:45:00,10.2,6.6,30.65,NNE,29,0.0,18.0,85,0.00,,,0.00,Wunderground v.1.15,2015-01-30 09:45:00,
2015-01-30 03:50:00,10.2,6.3,30.65,NNE,15,0.0,18.0,84,0.00,,,0.00,Wunderground v.1.15,2015-01-30 09:50:00,
2015-01-30 03:56:00,10.2,6.6,30.64,NNW,344,0.0,18.0,85,0.00,,,0.00,Wunderground v.1.15,2015-01-30 09:56:00,
2015-01-30 04:02:00,10.2,6.6,30.65,NNW,345,0.0,18.0,85,0.00,,,0.00,Wunderground v.1.15,2015-01-30 10:02:00,
2015-01-30 04:07:00,10.2,6.6,30.65,NNW,332,0.0,18.0,85,0.00,,,0.00,Wunderground v.1.15,2015-01-30 10:07:00,
2015-01-30 04:13:00,10.1,6.5,30.65,NNW,336,0.0,18.0,85,0.00,,,0.00,Wunderground v.1.15,2015-01-30 10:13:00,
2015-01-30 04:18:00,10.2,6.6,30.64,North,350,0.0,18.0,85,0.00,,,0.00,Wunderground v.1.15,2015-01-30 10:18:00,
2015-01-30 04:24:00,10.2,6.6,30.64,NNW,345,0.0,18.0,85,0.00,,,0.00,Wunderground v.1.15,2015-01-30 10:24:00,
2015-01-30 04:30:00,10.2,6.6,30.64,North,352,0.0,18.0,85,0.00,,,0.00,Wunderground v.1.15,2015-01-30 10:30:00,
2015-01-30 04:36:00,10.2,6.6,30.64,NE,36,0.0,18.0,85,0.00,,,0.00,Wunderground v.1.15,2015-01-30 10:36:00,
2015-01-30 04:42:00,10.2,6.6,30.64,NE,36,0.0,18.0,85,0.00,,,0.00,Wunderground v.1.15,2015-01-30 10:42:00,
2015-01-30 04:47:00,10.3,6.7,30.64,NNE,22,0.0,18.0,85,0.00,,,0.00,Wunderground v.1.15,2015-01-30 10:47:00,
2015-01-30 04:53:00,10.4,6.5,30.64,ENE,67,0.0,18.0,84,0.00,,,0.00,Wunderground v.1.15,2015-01-30 10:53:00,
2015-01-30 04:58:00,10.3,6.4,30.64,ENE,74,0.0,18.0,84,0.00,,,0.00,Wunderground v.1.15,2015-01-30 10:58:00,
2015-01-30 05:04:00,10.4,6.5,30.64,NE,43,0.0,18.0,84,0.00,,,0.00,Wunderground v.1.15,2015-01-30 11:04:00,
2015-01-30 05:10:00,10.3,6.2,30.64,NE,45,0.0,18.0,83,0.00,,,0.00,Wunderground v.1.15,2015-01-30 11:10:00,
2015-01-30 05:15:00,10.3,6.2,30.63,NE,52,0.0,18.0,83,0.00,,,0.00,Wunderground v.1.15,2015-01-30 11:15:00,
2015-01-30 05:21:00,10.3,6.2,30.63,NNE,29,0.0,18.0,83,0.00,,,0.00,Wunderground v.1.15,2015-01-30 11:21:00,
2015-01-30 05:26:00,10.2,6.1,30.63,SE,133,0.0,18.0,83,0.00,,,0.00,Wunderground v.1.15,2015-01-30 11:26:00,
2015-01-30 05:32:00,10.1,6.0,30.62,SE,133,0.0,18.0,83,0.00,,,0.00,Wunderground v.1.15,2015-01-30 11:32:00,
2015-01-30 05:38:00,10.1,6.2,30.62,SE,134,0.0,18.0,84,0.00,,,0.00,Wunderground v.1.15,2015-01-30 11:38:00,
2015-01-30 05:44:00,10.0,6.1,30.63,SE,134,0.0,18.0,84,0.00,,,0.00,Wunderground v.1.15,2015-01-30 11:44:00,
2015-01-30 05:49:00,9.9,6.0,30.63,SE,133,0.0,18.0,84,0.00,,,0.00,Wunderground v.1.15,2015-01-30 11:49:00,
2015-01-30 05:55:00,9.8,5.9,30.63,SE,133,0.0,18.0,84,0.00,,,0.00,Wunderground v.1.15,2015-01-30 11:55:00,
2015-01-30 06:01:00,9.8,5.9,30.64,SE,133,0.0,18.0,84,0.00,,,0.00,Wunderground v.1.15,2015-01-30 12:01:00,
2015-01-30 06:06:00,9.8,5.9,30.64,SE,134,0.0,18.0,84,0.00,,,0.00,Wunderground v.1.15,2015-01-30 12:06:00,
2015-01-30 06:12:00,10.0,6.1,30.63,SE,134,0.0,18.0,84,0.00,,,0.00,Wunderground v.1.15,2015-01-30 12:12:00,
2015-01-30 06:17:00,10.1,6.2,30.63,SE,134,0.0,18.0,84,0.00,,,0.00,Wunderground v.1.15,2015-01-30 12:17:00,
2015-01-30 06:23:00,10.2,6.3,30.63,SE,133,0.0,18.0,84,0.00,,,0.00,Wunderground v.1.15,2015-01-30 12:23:00,
2015-01-30 06:28:00,10.2,6.3,30.64,SE,134,0.0,18.0,84,0.00,,,0.00,Wunderground v.1.15,2015-01-30 12:28:00,
2015-01-30 06:34:00,10.3,6.4,30.63,SE,133,0.0,18.0,84,0.00,,,0.00,Wunderground v.1.15,2015-01-30 12:34:00,
2015-01-30 06:40:00,10.3,6.2,30.63,SE,134,0.0,18.0,83,0.00,,,0.00,Wunderground v.1.15,2015-01-30 12:40:00,
2015-01-30 06:45:00,10.3,6.2,30.63,SE,134,0.0,18.0,83,0.00,,,0.00,Wunderground v.1.15,2015-01-30 12:45:00,
2015-01-30 06:50:00,10.2,6.1,30.64,SE,133,0.0,18.0,83,0.00,,,0.00,Wunderground v.1.15,2015-01-30 12:50:00,
2015-01-30 06:56:00,10.1,6.0,30.64,SE,134,0.0,18.0,83,0.00,,,0.00,Wunderground v.1.15,2015-01-30 12:56:00,
2015-01-30 07:02:00,10.1,6.2,30.64,SE,135,0.0,18.0,84,0.00,,,0.00,Wunderground v.1.15,2015-01-30 13:02:00,
2015-01-30 07:08:00,10.0,6.1,30.63,SE,134,0.0,18.0,84,0.00,,,0.00,Wunderground v.1.15,2015-01-30 13:08:00,
2015-01-30 07:13:00,10.0,6.1,30.64,SE,134,0.0,18.0,84,0.00,,,0.00,Wunderground v.1.15,2015-01-30 13:13:00,
2015-01-30 07:20:00,9.9,6.0,30.64,SE,134,0.0,18.0,84,0.00,,,0.00,Wunderground v.1.15,2015-01-30 13:20:00,
2015-01-30 07:25:00,9.9,6.3,30.64,SE,133,0.0,18.0,85,0.00,,,0.00,Wunderground v.1.15,2015-01-30 13:25:00,
2015-01-30 07:31:00,9.9,6.3,30.64,SE,135,0.0,18.0,85,0.00,,,0.00,Wunderground v.1.15,2015-01-30 13:31:00,
2015-01-30 07:36:00,10.1,6.7,30.64,South,185,0.0,18.0,86,0.00,,,0.00,Wunderground v.1.15,2015-01-30 13:36:00,
2015-01-30 07:42:00,10.3,6.9,30.63,SSW,200,0.0,18.0,86,0.00,,,0.00,Wunderground v.1.15,2015-01-30 13:42:00,
2015-01-30 07:47:00,10.4,6.8,30.63,SE,135,0.0,18.0,85,0.00,,,0.00,Wunderground v.1.15,2015-01-30 13:47:00,
2015-01-30 07:53:00,10.7,7.1,30.63,SSW,204,0.0,18.0,85,0.00,,,0.00,Wunderground v.1.15,2015-01-30 13:53:00,
2015-01-30 07:58:00,10.7,7.1,30.64,SW,223,0.0,18.0,85,0.00,,,0.00,Wunderground v.1.15,2015-01-30 13:58:00,
2015-01-30 08:04:00,10.9,7.3,30.64,SW,223,0.0,18.0,85,0.00,,,0.00,Wunderground v.1.15,2015-01-30 14:04:00,
2015-01-30 08:10:00,11.0,7.1,30.64,SSW,204,0.0,18.0,84,0.00,,,0.00,Wunderground v.1.15,2015-01-30 14:10:00,
2015-01-30 08:15:00,11.1,7.2,30.63,SE,139,0.0,18.0,84,0.00,,,0.00,Wunderground v.1.15,2015-01-30 14:15:00,
2015-01-30 08:21:00,11.1,7.2,30.63,ESE,113,0.0,18.0,84,0.00,,,0.00,Wunderground v.1.15,2015-01-30 14:21:00,
2015-01-30 08:27:00,11.2,7.6,30.62,SW,220,0.0,18.0,85,0.00,,,0.00,Wunderground v.1.15,2015-01-30 14:27:00,
2015-01-30 08:32:00,11.3,7.7,30.62,SSW,192,0.0,18.0,85,0.00,,,0.00,Wunderground v.1.15,2015-01-30 14:32:00,
2015-01-30 08:38:00,11.3,7.7,30.62,WNW,303,0.0,18.0,85,0.00,,,0.00,Wunderground v.1.15,2015-01-30 14:38:00,
2015-01-30 08:43:00,11.5,7.9,30.63,SSW,213,0.0,18.0,85,0.00,,,0.00,Wunderground v.1.15,2015-01-30 14:43:00,
2015-01-30 08:49:00,12.0,8.4,30.63,SE,135,0.0,18.0,85,0.00,,,0.00,Wunderground v.1.15,2015-01-30 14:49:00,
2015-01-30 08:55:00,12.7,9.0,30.64,SW,225,0.0,18.0,85,0.00,,,0.00,Wunderground v.1.15,2015-01-30 14:55:00,
2015-01-30 09:01:00,12.5,8.3,30.64,SSW,198,0.0,18.0,83,0.00,,,0.00,Wunderground v.1.15,2015-01-30 15:01:00,
2015-01-30 09:07:00,12.4,8.5,30.64,SW,228,0.0,18.0,84,0.00,,,0.00,Wunderground v.1.15,2015-01-30 15:07:00,
2015-01-30 09:13:00,12.4,8.5,30.64,SSW,204,0.0,18.0,84,0.00,,,0.00,Wunderground v.1.15,2015-01-30 15:13:00,
2015-01-30 09:18:00,12.5,8.6,30.64,SSW,199,0.0,18.0,84,0.00,,,0.00,Wunderground v.1.15,2015-01-30 15:18:00,
2015-01-30 09:24:00,12.7,8.8,30.64,SW,216,0.0,18.0,84,0.00,,,0.00,Wunderground v.1.15,2015-01-30 15:24:00,
2015-01-30 09:30:00,12.9,9.0,30.63,South,185,0.0,18.0,84,0.00,,,0.00,Wunderground v.1.15,2015-01-30 15:30:00,
2015-01-30 09:35:00,13.0,9.1,30.63,SE,125,0.0,18.0,84,0.00,,,0.00,Wunderground v.1.15,2015-01-30 15:35:00,
2015-01-30 09:41:00,13.2,9.0,30.63,SSW,195,0.0,18.0,83,0.00,,,0.00,Wunderground v.1.15,2015-01-30 15:41:00,
2015-01-30 09:46:00,13.4,9.5,30.63,South,180,0.0,18.0,84,0.00,,,0.00,Wunderground v.1.15,2015-01-30 15:46:00,
2015-01-30 09:52:00,13.5,9.3,30.63,SW,220,0.0,18.0,83,0.00,,,0.00,Wunderground v.1.15,2015-01-30 15:52:00,
2015-01-30 09:58:00,13.8,9.6,30.63,SW,216,0.0,18.0,83,0.00,,,0.00,Wunderground v.1.15,2015-01-30 15:58:00,
2015-01-30 10:03:00,14.1,9.9,30.63,SSW,204,0.0,18.0,83,0.00,,,0.00,Wunderground v.1.15,2015-01-30 16:03:00,
2015-01-30 10:09:00,14.4,10.2,30.63,South,182,0.0,18.0,83,0.00,,,0.00,Wunderground v.1.15,2015-01-30 16:09:00,
2015-01-30 10:14:00,14.5,10.0,30.63,SE,144,0.0,18.0,82,0.00,,,0.00,Wunderground v.1.15,2015-01-30 16:14:00,
2015-01-30 10:20:00,14.6,10.1,30.63,SSW,202,0.0,18.0,82,0.00,,,0.00,Wunderground v.1.15,2015-01-30 16:20:00,
2015-01-30 10:26:00,14.8,10.0,30.63,SSW,192,0.0,18.0,81,0.00,,,0.00,Wunderground v.1.15,2015-01-30 16:26:00,
2015-01-30 10:32:00,14.7,9.9,30.63,SW,214,0.0,18.0,81,0.00,,,0.00,Wunderground v.1.15,2015-01-30 16:32:00,
2015-01-30 10:38:00,14.8,10.0,30.62,SSW,201,0.0,18.0,81,0.00,,,0.00,Wunderground v.1.15,2015-01-30 16:38:00,
2015-01-30 10:44:00,14.9,10.1,30.61,SW,216,0.0,18.0,81,0.00,,,0.00,Wunderground v.1.15,2015-01-30 16:44:00,
2015-01-30 10:49:00,15.4,10.6,30.61,SE,128,0.0,18.0,81,0.00,,,0.00,Wunderground v.1.15,2015-01-30 16:49:00,
2015-01-30 10:55:00,15.6,10.8,30.61,South,183,0.0,18.0,81,0.00,,,0.00,Wunderground v.1.15,2015-01-30 16:55:00,
2015-01-30 11:01:00,15.8,10.7,30.61,South,189,0.0,18.0,80,0.00,,,0.00,Wunderground v.1.15,2015-01-30 17:01:00,
2015-01-30 11:07:00,16.0,10.9,30.60,South,190,0.0,18.0,80,0.00,,,0.00,Wunderground v.1.15,2015-01-30 17:07:00,
2015-01-30 11:13:00,16.8,11.7,30.60,SSW,201,0.0,18.0,80,0.00,,,0.00,Wunderground v.1.15,2015-01-30 17:13:00,
2015-01-30 11:19:00,17.1,11.7,30.59,South,182,0.0,18.0,79,0.00,,,0.00,Wunderground v.1.15,2015-01-30 17:19:00,
2015-01-30 11:25:00,17.3,11.9,30.59,SSE,150,0.0,18.0,79,0.00,,,0.00,Wunderground v.1.15,2015-01-30 17:25:00,
2015-01-30 11:30:00,17.7,12.0,30.59,SSW,196,0.0,18.0,78,0.00,,,0.00,Wunderground v.1.15,2015-01-30 17:30:00,
2015-01-30 11:36:00,18.0,12.0,30.59,South,185,0.0,18.0,77,0.00,,,0.00,Wunderground v.1.15,2015-01-30 17:36:00,
2015-01-30 11:42:00,18.3,12.6,30.59,SW,221,0.0,18.0,78,0.00,,,0.00,Wunderground v.1.15,2015-01-30 17:42:00,
2015-01-30 11:47:00,18.4,12.1,30.58,SW,218,0.0,18.0,76,0.00,,,0.00,Wunderground v.1.15,2015-01-30 17:47:00,
2015-01-30 11:53:00,18.6,12.3,30.58,SSE,168,0.0,18.0,76,0.00,,,0.00,Wunderground v.1.15,2015-01-30 17:53:00,
2015-01-30 11:59:00,18.5,12.2,30.58,SW,230,0.0,18.0,76,0.00,,,0.00,Wunderground v.1.15,2015-01-30 17:59:00,
2015-01-30 12:04:00,18.9,13.2,30.58,South,176,0.0,18.0,78,0.00,,,0.00,Wunderground v.1.15,2015-01-30 18:04:00,
2015-01-30 12:10:00,19.5,13.5,30.57,SSW,202,0.0,18.0,77,0.00,,,0.00,Wunderground v.1.15,2015-01-30 18:10:00,
2015-01-30 12:16:00,19.9,13.3,30.57,SE,135,0.0,18.0,75,0.00,,,0.00,Wunderground v.1.15,2015-01-30 18:16:00,
2015-01-30 12:21:00,20.2,13.2,30.57,SSW,204,0.0,18.0,74,0.00,,,0.00,Wunderground v.1.15,2015-01-30 18:21:00,
2015-01-30 12:27:00,20.1,12.8,30.56,SE,136,0.0,18.0,73,0.00,,,0.00,Wunderground v.1.15,2015-01-30 18:27:00,
2015-01-30 12:33:00,20.2,12.9,30.55,SSW,197,1.0,18.0,73,0.00,,,0.00,Wunderground v.1.15,2015-01-30 18:33:00,
2015-01-30 12:38:00,20.8,13.8,30.55,SSW,206,1.0,18.0,74,0.00,,,0.00,Wunderground v.1.15,2015-01-30 18:38:00,
2015-01-30 12:44:00,20.6,12.7,30.54,SSW,204,0.0,18.0,71,0.00,,,0.00,Wunderground v.1.15,2015-01-30 18:44:00,
2015-01-30 12:50:00,20.6,13.3,30.54,SW,228,0.0,18.0,73,0.00,,,0.00,Wunderground v.1.15,2015-01-30 18:50:00,
2015-01-30 12:56:00,20.8,13.5,30.53,SW,220,0.0,18.0,73,0.00,,,0.00,Wunderground v.1.15,2015-01-30 18:56:00,
2015-01-30 13:02:00,20.6,13.6,30.53,SSW,202,0.0,18.0,74,0.00,,,0.00,Wunderground v.1.15,2015-01-30 19:02:00,
2015-01-30 13:07:00,20.7,13.4,30.52,South,184,0.0,18.0,73,0.00,,,0.00,Wunderground v.1.15,2015-01-30 19:07:00,
2015-01-30 13:13:00,21.1,14.1,30.52,SW,234,0.0,18.0,74,0.00,,,0.00,Wunderground v.1.15,2015-01-30 19:13:00,
2015-01-30 13:19:00,21.0,14.0,30.51,SSW,199,2.0,18.0,74,0.00,,,0.00,Wunderground v.1.15,2015-01-30 19:19:00,
2015-01-30 13:25:00,21.2,14.2,30.50,SSW,208,2.0,18.0,74,0.00,,,0.00,Wunderground v.1.15,2015-01-30 19:25:00,
2015-01-30 13:30:00,21.5,14.5,30.50,SSW,206,4.0,18.0,74,0.00,,,0.00,Wunderground v.1.15,2015-01-30 19:30:00,
2015-01-30 13:36:00,21.9,14.9,30.50,SSW,195,10.0,18.0,74,0.00,,,0.00,Wunderground v.1.15,2015-01-30 19:36:00,
2015-01-30 13:41:00,22.3,15.0,30.49,SSW,208,9.0,18.0,73,0.00,,,0.00,Wunderground v.1.15,2015-01-30 19:41:00,
2015-01-30 13:47:00,22.9,15.5,30.49,SSW,201,6.0,18.0,73,0.00,,,0.00,Wunderground v.1.15,2015-01-30 19:47:00,
2015-01-30 13:53:00,23.1,15.4,30.48,SSW,204,7.0,18.0,72,0.00,,,0.00,Wunderground v.1.15,2015-01-30 19:53:00,
2015-01-30 13:59:00,23.4,15.7,30.48,SW,223,8.0,18.0,72,0.00,,,0.00,Wunderground v.1.15,2015-01-30 19:59:00,
2015-01-30 14:05:00,23.8,16.1,30.47,SSW,194,7.0,18.0,72,0.00,,,0.00,Wunderground v.1.15,2015-01-30 20:05:00,
2015-01-30 14:11:00,23.9,16.2,30.47,South,171,8.0,18.0,72,0.00,,,0.00,Wunderground v.1.15,2015-01-30 20:11:00,
2015-01-30 14:17:00,24.1,16.7,30.46,SSW,211,8.0,18.0,73,0.00,,,0.00,Wunderground v.1.15,2015-01-30 20:17:00,
2015-01-30 14:22:00,24.2,16.5,30.46,South,187,6.0,18.0,72,0.00,,,0.00,Wunderground v.1.15,2015-01-30 20:22:00,
2015-01-30 14:28:00,24.4,16.7,30.46,SSW,204,6.0,18.0,72,0.00,,,0.00,Wunderground v.1.15,2015-01-30 20:28:00,
2015-01-30 14:34:00,24.6,17.2,30.46,South,172,5.0,18.0,73,0.00,,,0.00,Wunderground v.1.15,2015-01-30 20:34:00,
2015-01-30 14:40:00,24.8,17.1,30.45,SW,220,5.0,18.0,72,0.00,,,0.00,Wunderground v.1.15,2015-01-30 20:40:00,
2015-01-30 14:45:00,25.3,17.5,30.45,SSW,195,3.0,18.0,72,0.00,,,0.00,Wunderground v.1.15,2015-01-30 20:45:00,
2015-01-30 14:51:00,25.2,17.4,30.45,SSW,198,2.0,18.0,72,0.00,,,0.00,Wunderground v.1.15,2015-01-30 20:51:00,
2015-01-30 14:57:00,25.3,17.9,30.45,SW,223,5.0,18.0,73,0.00,,,0.00,Wunderground v.1.15,2015-01-30 20:57:00,
2015-01-30 15:03:00,25.9,18.4,30.44,SSW,198,2.0,18.0,73,0.00,,,0.00,Wunderground v.1.15,2015-01-30 21:03:00,
2015-01-30 15:09:00,26.1,18.3,30.44,South,184,0.0,18.0,72,0.00,,,0.00,Wunderground v.1.15,2015-01-30 21:09:00,
2015-01-30 15:15:00,25.8,18.3,30.44,SSW,213,3.0,18.0,73,0.00,,,0.00,Wunderground v.1.15,2015-01-30 21:15:00,